Regional Weather Roundup
Issued by NWS

Home | Current Version | Previous Version | Graphics & Text | Print | Product List | Glossary On
Versions: 1 2 3 4 5 6 7 8 9 10 11 12 13 14 15 16 17 18 19 20 21 22 23 24 25 26 27 28 29 30 31 32 33 34 35 36 37 38 39 40 41 42 43 44 45 46 47 48 49 50
664
ASUS43 KMKX 240500
RWRWI

WISCONSIN REGIONAL WEATHER ROUNDUP
NATIONAL WEATHER SERVICE MILWAUKEE/SULLIVAN WI
1200 AM CDT THU AUG 24 2017

NOTE: "FAIR" INDICATES FEW OR NO CLOUDS BELOW 12,000 FEET WITH NO
SIGNIFICANT WEATHER AND/OR OBSTRUCTIONS TO VISIBILITY.

WIZ001-002-006>008-014>016-023>028-240600-
NORTHWEST WISCONSIN

CITY           SKY/WX    TMP DP  RH WIND       PRES   REMARKS
SUPERIOR ARPT    N/A     55  53  94 CALM      30.09S
ASHLAND        CLOUDY    52  50  93 CALM      30.10S
HAYWARD        CLOUDY    56  52  86 CALM      30.10F
SIREN          LGT RAIN  56  54  92 CALM      30.10F
CUMBERLAND     RAIN      55  52  88 NE6       30.11R
RICE LAKE      RAIN      57  54  88 N3        30.13R
CHETEK         CLOUDY    58  53  81 NE3       30.11R
LADYSMITH      CLOUDY    56  50  81 NE3       30.12R
EAU CLAIRE     CLOUDY    56  52  86 NE5       30.08R
MENOMONIE      CLOUDY    58  54  88 N3        30.08R
NEW RICHMOND   LGT RAIN  58  51  78 CALM      30.10R
OSCEOLA        LGT RAIN  59  55  85 NE3       30.12R
$$

WIZ003>005-009-010-017-018-240600-
NORTH CENTRAL WISCONSIN

CITY           SKY/WX    TMP DP  RH WIND       PRES   REMARKS
MANITOWISH WTR CLOUDY    45  45 100 CALM      30.11R
ARBOR VITAE    CLOUDY    52  48  87 CALM      30.10S
WOODRUFF       CLOUDY    52  48  87 CALM      30.10S
RHINELANDER    MOCLDY    47  45  93 CALM      30.11R
EAGLE RIVER    CLOUDY    45  43  94 CALM      30.10R
LAND O LAKES   CLOUDY    45  43  95 CALM      30.12R
PHILLIPS       CLOUDY    51  47  88 CALM      30.12R
TOMAHAWK         N/A     48  45  87 CALM      30.11R
MEDFORD        CLOUDY    51  46  84 NE3       30.10R
MERRILL        CLOUDY    48  46  93 CALM      30.10R
$$

WIZ029-030-035-036-043>047-240600-
CENTRAL WISCONSIN

CITY           SKY/WX    TMP DP  RH WIND       PRES   REMARKS
WAUSAU         MOCLDY    54  43  66 N3        30.09R
MOSINEE        PTCLDY    52  45  76 N5        30.10R
MARSHFIELD     PTCLDY    56  45  66 NE9       30.08R
STEVENS POINT  PTCLDY    50  46  85 N3        30.08R
WAUPACA        CLEAR     57  48  72 N3        30.06S
WAUTOMA        NOT AVBL
WISC RAPIDS    CLEAR     56  47  71 NE8       30.09R
CAMP DOUGLAS   FOG       45  45 100 NW5       30.06R VSB 3/4
$$

WIZ011>013-019>022-031-037>040-048>050-240600-
NORTHEAST WISCONSIN

CITY           SKY/WX    TMP DP  RH WIND       PRES   REMARKS
ANTIGO         PTCLDY    46  44  93 NE5       30.09S
SHAWANO        CLEAR     59  46  61 NE10      30.07S
OCONTO         PTCLDY    54  42  64 NE6       30.08R
STURGEON BAY   NOT AVBL
GREEN BAY      CLEAR     57  52  83 N10       30.06R
MANITOWOC      NOT AVBL
APPLETON       CLEAR     55  43  62 N10       30.04R
CLINTONVILLE   CLEAR     54  45  71 NE6       30.07R
OSHKOSH        NOT AVBL
$$

WIZ032>034-041-042-053>061-240600-
SOUTHWEST WISCONSIN

CITY           SKY/WX    TMP DP  RH WIND       PRES   REMARKS
LA CROSSE      CLEAR     61  55  81 CALM      30.06R
SPARTA         CLEAR     48  47  99 CALM      30.07S
VIROQUA        CLEAR     59  52  77 CALM      30.07S
BOSCOBEL       NOT AVBL
PRAIRIE DU CHI CLEAR     56  53  89 CALM      30.06S
PLATTEVILLE    CLEAR     56  55  94 CALM      30.07R
$$

WIZ056-057-062-063-064-067-068-240600-
SOUTH CENTRAL WISCONSIN

CITY           SKY/WX    TMP DP  RH WIND       PRES   REMARKS
REEDSBURG      CLEAR     54  54 100 CALM      30.05F
BARABOO/DELLS  CLEAR     53  49  89 CALM      30.05F
LONE ROCK      NOT AVBL
MINERAL POINT  CLEAR     55  55 100 CALM      30.07R
MADISON        NOT AVBL
MIDDLETON      CLEAR     55  55 100 CALM      30.06S
WATERTOWN      CLEAR     54  54  99 CALM      30.03F
MONROE         CLEAR     61  50  67 NW5       30.05S
JANESVILLE     CLEAR     55  55 100 CALM      30.04S FOG
$$

WIZ051-052-058>065-066-070>072-240600-
SOUTHEAST WISCONSIN

CITY           SKY/WX    TMP DP  RH WIND       PRES   REMARKS
MILWAUKEE      PTCLDY    63  56  78 CALM      30.03S
WAUKESHA       CLEAR     54  50  87 CALM      30.04F
MILWAUKEE/TIMM PTCLDY    57  52  82 CALM      30.04S
RACINE         CLEAR     60  57  89 SW5       30.04F
KENOSHA        CLEAR     57  55  93 SW3       30.04R
FOND DU LAC    PTCLDY    58  49  72 CALM      30.03S
SHEBOYGAN      CLEAR     53  53 100 CALM      30.03S FOG
WEST BEND      CLEAR     52  52 100 CALM      30.03F
JUNEAU         PTCLDY    56  51  85 CALM      30.05S
$$

LSZ147-162-240600-
LAKE SUPERIOR

STATION/POSITION TIME  TEMP    WIND        PRES    WAVE
                       AIR SEA DIR/SP/G            HT/PER
                 (UTC) (F)     (DEG/KT/KT) (MB)    (FT/S)
W MID LAKE BUOY  0350   59 59  290/  6/  8 1018.7R   1
DEVILS ISLAND    0400   60     100/  5/  5 1019.1R
PORT WING        0330   61     160/  4/  7 1019.0R
SAXON HARBOR     0440   52     180/  5/  8 1018.6R
$$

LMZ867-665-643>646-240600-
LAKE MICHIGAN

STATION/POSITION TIME  TEMP    WIND        PRES    WAVE
                       AIR SEA DIR/SP/G            HT/PER
                 (UTC) (F)     (DEG/KT/KT) (MB)    (FT/S)
S GREEN BAY BUOY 0430   62 70   50/ 17/ 21 1017.9R
N MID LAKE BUOY  0350   58 66  360/ 17/ 21 1018.3R   3/ 5
NORTHPORT PIER   0440   59      10/ 11/ 17 1018.3S
KEWAUNEE LAKESHO 0430   60      20/  8/ 14 1016.8R
SHEBOYGAN LAKESH 0400   65     180/  4/  5 1016.4S
PORT WASHINGTON  0440   63     270/  4/  6 1017.3F
ATWATER BUOY     0309   67 69  220/  6/  8 1016.9R
MILWAUKEE LAKESH 0430   66     250/  5/  5   N/A
S MID LAKE BUOY  0350   67 71  170/  2/  4 1017.0R   2/ 5
KENOSHA   LAKESH 0400   66     230/  4/  5 1016.9
$$

TC  - TEMPERATURE IN CELSIUS
VSB - VISIBILITY IN STATUTE MILES
WCI - WIND CHILL INDEX
HX  - HEAT INDEX





USA.gov is the U.S. government's official web portal to all federal, state and local government web resources and services.